Regional Weather Roundup
Issued by NWS

Home | Current Version | Previous Version | Graphics & Text | Print | Product List | Glossary On
Versions: 1 2 3 4 5 6 7 8 9 10 11 12 13 14 15 16 17 18 19 20 21 22 23 24 25 26 27 28 29 30 31 32 33 34 35 36 37 38 39 40 41 42 43 44 45 46 47 48 49 50
000
ASUS45 KSLC 292210
RWRUT

UTAH REGIONAL WEATHER ROUNDUP
NATIONAL WEATHER SERVICE SALT LAKE CITY UT
300 PM MST THU JAN 29 2015

UTZ001>011-023>025-292300-

NORTHERN UTAH

CITY           SKY/WX    TMP DP  RH WIND       PRES   REMARKS
BRIGHAM CITY   PTSUNNY   47  33  59 NW8       30.28F
HILL AFB       PTSUNNY   46  29  51 NW7       30.26F
LOGAN          MOSUNNY   39  36  89 W3        30.31F
OGDEN          PTSUNNY   46  35  65 NW7       30.27F
PROVO AIRPORT  CLOUDY    43  32  65 VRB5      30.26F
SALT LAKE CITY CLOUDY    44  35  70 NW7       30.27F
VERNAL         CLOUDY    48  30  49 SE5       30.31F
WENDOVER       CLOUDY    45  34  65 SE7       30.28F
HEBER CITY     CLOUDY    41  30  65 CALM      30.28F
WEST JORDAN    SUNNY     45  37  76 N7        30.27F

$$

UTZ012>022-026-027-292300-

SOUTHERN/CENTRAL UTAH

CITY           SKY/WX    TMP DP  RH WIND       PRES   REMARKS
BLANDING       CLOUDY    48  30  49 CALM      30.35F
BRYCE CANYON   CLOUDY    41  27  57 S10       30.27F
CEDAR CITY     CLOUDY    45  32  60 CALM      30.21F
DELTA          PTSUNNY   48  34  57 CALM      30.24F
HANKSVILLE     CLOUDY    52  32  46 CALM      30.28F
MILFORD        LGT RAIN  46  34  62 N9        30.23F
MOAB/CYNLANDS  MOSUNNY   51  33  50 NW3       30.25F
PRICE          PTSUNNY   51  24  34 S7        30.27F
ST GEORGE      CLOUDY    57  36  44 CALM      30.16F
KANAB            N/A     52  32  46 NE10G18   30.24S

$$

REGIONAL REPORTS     COLORADO/ARIZONA

CITY           SKY/WX    TMP DP  RH WIND       PRES   REMARKS
CRAIG, CO      PTSUNNY   40  32  73 SW7       30.32F
GRAND JUNCTION PTSUNNY   51  28  41 S8        30.27F
RIFLE          MOSUNNY   53  23  31 CALM      30.27F
MONTROSE       CLOUDY    49  27  42 NW6       30.31S
CORTEZ         CLOUDY    53  29  39 CALM      30.28F
PAGE, AZ       NOT AVBL
GRAND CANYON   CLOUDY    49  31  49 E15       30.20F
KINGMAN        CLOUDY    59  40  49 N10       30.08F
FLAGSTAFF      CLOUDY    49  31  49 NE8       30.21F

$$

REGIONAL REPORTS    NEVADA/IDAHO/WYOMING

CITY           SKY/WX    TMP DP  RH WIND       PRES   REMARKS
LAS VEGAS, NV  CLOUDY    64  35  34 CALM      30.06F
ELY            LGT RAIN  41  32  70 N3        30.25F
ELKO           PTSUNNY   48  33  56 NE3       30.22F
POCATELLO, ID  MOSUNNY   45  36  70 NE8       30.32F
BURLEY         PTSUNNY   43  33  68 E12       30.30F
EVANSTON, WY   PTSUNNY   34  28  79 E12       30.32F WCI  25
ROCK SPRINGS   PTSUNNY   38  30  73 NE7       30.33F WCI  33
KEMMERER       PTSUNNY   36  28  75 NE12      30.33F WCI  27

$$



USA.gov is the U.S. government's official web portal to all federal, state and local government web resources and services.